Location: Valdosta
(30.8330°N, 83.2790°W)
Time: 19:30:15
(UTC-04:00)

Amateur Radio Satellites - All Passes

Search period start: 29 August 2016 19:00
Search period end: 30 August 2016 19:00
Location: Valdosta, 30.8330°N, 83.2790°W

Satellite Date Start Highest point End Downlink Frequencies (MHz)
Time Altitude Azimuth
BRITE-PL 29 Aug 19:02:41 19:07:17 50° 261° (W) 19:12:19 437.365/2234.400
CUBESAT XI-V 29 Aug 19:23:35 19:27:47 33° 288° (WNW) 19:31:59 437.345
Cubesat XI-IV 29 Aug 19:29:25 19:34:42 63° 258° (WSW) 19:40:00 437.490
NOAA 15 29 Aug 19:35:09 19:40:03 40° 261° (W) 19:45:00 137.62
CUTE-I 29 Aug 19:40:47 19:45:54 47° 260° (W) 19:51:02 437.470
Cosmos 2504 29 Aug 19:43:14 19:50:26 89° 265° (W) 19:57:41 435.465 / 435.565
STRAND 1 29 Aug 19:58:30 20:02:30 23° 96° (E) 20:06:29 437.568
DOVE 4 29 Aug 20:00:46 20:05:50 67° 259° (W) 20:11:07 437.250
GOMX 1 29 Aug 20:06:20 20:10:29 26° 265° (W) 20:14:51 467.674
SEEDS 29 Aug 20:09:27 20:12:02 16° 70° (ENE) 20:14:38 437.485
BEESAT 2 29 Aug 20:11:01 20:14:58 62° 244° (WSW) 20:18:54 435.950
AIST 1 29 Aug 20:18:29 20:21:09 16° 76° (ENE) 20:23:48
LilacSat-2 29 Aug 20:19:24 20:20:24 11° 266° (W) 20:21:24 437.200
HO-68 29 Aug 20:20:00 20:26:56 54° 71° (ENE) 20:33:54 435.675
BEESAT 3 29 Aug 20:25:38 20:28:25 19° 250° (WSW) 20:31:13 437.485
CINEMA 3 29 Aug 20:25:40 20:30:36 60° 76° (ENE) 20:35:31 145.822/145.860
Cosmos 2491 29 Aug 20:28:35 20:35:29 26° 286° (WNW) 20:42:28 435.465 / 435.565
CUBEBUG 2 29 Aug 20:30:53 20:33:52 17° 70° (ENE) 20:36:48 437.445
CANX-2 29 Aug 20:33:48 20:37:56 60° 76° (ENE) 20:42:04 2200.000
AAUSAT CUBESAT 2 29 Aug 20:34:08 20:36:44 16° 70° (ENE) 20:39:20 437.432
CUTE 1.7 + AOD 2 29 Aug 20:39:27 20:43:35 60° 76° (ENE) 20:47:43 437.475
NOAA 18 29 Aug 20:42:07 20:44:54 14° 266° (W) 20:47:41 137.9125
COMPASS 1 29 Aug 20:43:24 20:46:56 28° 73° (ENE) 20:50:28 437.405
AIST 2 29 Aug 21:04:37 21:07:13 16° 53° (NE) 21:09:48 435.215
PRISM 29 Aug 21:18:57 21:21:08 14° 95° (E) 21:23:19 437.425
PCSat 29 Aug 21:23:43 21:28:44 38° 60° (ENE) 21:33:44 145.827
Oscar 11 29 Aug 21:34:58 21:38:52 35° 74° (ENE) 21:42:47 145.826/435.025
STRAND 1 29 Aug 21:37:09 21:41:37 31° 289° (WNW) 21:46:04 437.568
SEEDS 29 Aug 21:43:51 21:47:27 29° 263° (W) 21:51:06 437.485
FUNcube-1 29 Aug 21:45:12 21:49:27 44° 75° (ENE) 21:53:36 145.935
DELFI C3 29 Aug 21:53:22 21:56:16 20° 71° (ENE) 21:59:11 145.870
AIST 1 29 Aug 21:54:54 21:58:45 30° 270° (W) 22:02:34
UWE-3 29 Aug 21:58:18 22:02:53 69° 259° (W) 22:07:22 435.000/436.395/437.385
CUBEBUG 2 29 Aug 22:05:49 22:10:09 36° 262° (W) 22:14:25 437.445
CINEMA 3 29 Aug 22:06:27 22:07:58 11° 268° (W) 22:09:29 145.822/145.860
ZACube-1 29 Aug 22:07:44 22:12:13 87° 259° (W) 22:16:38 437.345
AAUSAT CUBESAT 2 29 Aug 22:08:25 22:11:57 28° 263° (W) 22:15:29 437.432
HO-68 29 Aug 22:09:27 22:14:50 23° 264° (W) 22:20:15 435.675
COMPASS 1 29 Aug 22:19:54 22:22:27 16° 265° (W) 22:25:01 437.405
M-CUBED/EXP-1 PRIME 29 Aug 22:30:17 22:31:34 11° 62° (ENE) 22:32:52 437.505
HUMSAT D 29 Aug 22:34:35 22:38:15 31° 74° (ENE) 22:41:54 437.325/437.525
AIST 2 29 Aug 22:41:56 22:45:47 36° 248° (WSW) 22:49:37 435.215
Cosmos 2499 29 Aug 22:44:19 22:46:39 12° 70° (ENE) 22:48:59 435.465 / 435.565
UNISAT 6 29 Aug 22:49:14 22:51:35 14° 95° (E) 22:53:56 437.425
PRISM 29 Aug 22:52:41 22:56:28 34° 287° (WNW) 23:00:15 437.425
SO-50 29 Aug 23:05:40 23:10:11 40° 113° (ESE) 23:14:42 436.795
PCSat 29 Aug 23:07:46 23:11:50 22° 254° (WSW) 23:15:52 145.827
GONETS M04 29 Aug 23:11:15 23:19:11 36° 77° (ENE) 23:27:02
Oscar 11 29 Aug 23:12:44 23:15:03 14° 266° (W) 23:17:22 145.826/435.025
FUNcube-1 29 Aug 23:24:10 23:25:48 12° 266° (W) 23:27:25 145.935
ANTELSAT 29 Aug 23:24:39 23:28:40 40° 99° (E) 23:32:40 437.575/2403.000
DELFI C3 29 Aug 23:28:01 23:30:57 20° 264° (W) 23:33:55 145.870
AISAT 29 Aug 23:51:48 23:55:07 21° 70° (ENE) 23:58:26 437.250
ESTCUBE 1 29 Aug 23:52:29 23:56:38 39° 74° (ENE) 00:00:50 437.505/2401.250
AUBIESAT-1 29 Aug 23:53:05 23:57:41 80° 73° (ENE) 00:02:20 437.475
TIGRISAT 29 Aug 23:54:43 23:58:57 86° 287° (WNW) 00:03:12 435.000
M-CUBED/EXP-1 PRIME 30 Aug 00:00:50 00:05:27 67° 255° (WSW) 00:10:09 437.505
PHONESAT 2.4 30 Aug 00:02:25 00:04:53 23° 143° (SE) 00:07:22 2401.200-2431.200
DANDE 30 Aug 00:08:11 00:09:35 13° 91° (E) 00:10:59 436.750
HUMSAT D 30 Aug 00:11:32 00:13:53 15° 265° (W) 00:16:12 437.325/437.525
RS-15 30 Aug 00:19:14 00:28:36 31° 103° (ESE) 00:38:18 29.354- 29.394
UNISAT 6 30 Aug 00:24:32 00:28:20 33° 287° (WNW) 00:32:09 437.425
QB50P1 30 Aug 00:28:16 00:31:52 27° 97° (E) 00:35:27 145.935-145.965
CUSAT 1 30 Aug 00:29:17 00:31:48 29° 284° (WNW) 00:34:47 437.405
CUBEBUG 1 30 Aug 00:33:20 00:37:43 79° 78° (ENE) 00:42:09 437.445
Cosmos 2499 30 Aug 00:33:22 00:40:26 83° 266° (W) 00:47:44 435.465 / 435.565
VELOX 1 30 Aug 00:37:37 00:42:01 71° 76° (ENE) 00:46:27 145.980
POPSAT HIP 1 30 Aug 00:38:18 00:42:10 36° 99° (E) 00:46:01 437.405
O/OREOS (USA 219) 30 Aug 00:39:23 00:43:59 90° 269° (W) 00:48:35 437.305
SPROUT 30 Aug 00:40:06 00:44:00 33° 73° (ENE) 00:47:52 437.525
DX 1 30 Aug 00:46:45 00:51:02 59° 75° (ENE) 00:55:21 434.975-435.025
SO-50 30 Aug 00:47:14 00:50:47 20° 307° (NW) 00:54:18 436.795
DUCHIFAT 1 30 Aug 01:02:50 01:07:01 68° 102° (ESE) 01:11:08 145.980
ANTELSAT 30 Aug 01:03:13 01:04:58 12° 292° (WNW) 01:06:43 437.575/2403.000
GONETS M04 30 Aug 01:07:51 01:15:54 41° 272° (W) 01:23:54
QB50P2 30 Aug 01:09:04 01:13:17 79° 282° (WNW) 01:17:27 145.880/145.840
JAS-2 30 Aug 01:10:26 01:17:23 49° 100° (E) 01:24:50 435.910
50 SAT 30 Aug 01:10:41 01:13:57 34° 261° (W) 01:17:14 437.505
POLYITAN 1 30 Aug 01:11:34 01:15:47 78° 282° (WNW) 01:19:56 437.675
NANOSAT C BR1 30 Aug 01:17:53 01:22:04 70° 283° (WNW) 01:26:12 145.865
UKube-1 30 Aug 01:22:31 01:26:48 65° 258° (WSW) 01:31:07 .
AISAT 30 Aug 01:27:37 01:31:22 27° 263° (W) 01:35:09 437.250
ESTCUBE 1 30 Aug 01:31:18 01:33:33 14° 266° (W) 01:35:48 437.505/2401.250
PHONESAT 2.4 30 Aug 01:38:16 01:41:07 38° 336° (NNW) 01:43:58 2401.200-2431.200
BUGSAT 1 30 Aug 01:47:54 01:52:02 84° 280° (W) 01:56:03 437.445
QB50P1 30 Aug 02:04:35 02:07:24 18° 290° (WNW) 02:10:13 145.935-145.965
Oscar 19 30 Aug 02:05:36 02:09:38 23° 96° (E) 02:13:38 437.125/150
POPSAT HIP 1 30 Aug 02:15:29 02:17:35 14° 291° (WNW) 02:19:41 437.405
SPROUT 30 Aug 02:17:29 02:19:57 15° 266° (W) 02:22:26 437.525
TISAT 1 30 Aug 02:25:23 02:29:35 62° 259° (W) 02:33:48 437.305
RS-15 30 Aug 02:28:50 02:40:06 62° 302° (WNW) 02:52:04 29.354- 29.394
ITUPSAT 1 30 Aug 02:38:04 02:42:04 27° 71° (ENE) 02:46:03 437.325
JAS-2 30 Aug 02:56:12 03:02:01 28° 291° (WNW) 03:08:15 435.910
SWISSCUBE 30 Aug 03:08:53 03:13:36 72° 76° (ENE) 03:18:20 437.505
PHONESAT 2.4 30 Aug 03:16:13 03:17:58 14° 352° (N) 03:19:42 2401.200-2431.200
BEESAT 30 Aug 03:25:41 03:30:26 83° 259° (W) 03:35:12 436.000
ITAMSAT 1 30 Aug 03:25:56 03:29:09 17° 95° (E) 03:32:22 435.822/435.867
Gurwin Techsat 1B 30 Aug 03:35:11 03:40:31 85° 104° (ESE) 03:45:50 435.225
Oscar 19 30 Aug 03:44:19 03:48:55 33° 289° (WNW) 03:53:29 437.125/150
ITUPSAT 1 30 Aug 04:16:02 04:19:47 23° 263° (W) 04:23:33 437.325
KKS-1 30 Aug 04:29:04 04:33:21 46° 74° (ENE) 04:37:38 437.445
AO-85 30 Aug 04:43:54 04:48:52 39° 112° (ESE) 04:53:40 145.980
Cosmos 2491 30 Aug 04:48:38 04:54:41 20° 71° (ENE) 05:00:43 435.465 / 435.565
RS-15 30 Aug 04:48:47 04:55:43 17° 328° (NNW) 05:02:52 29.354- 29.394
AO-7 30 Aug 04:51:53 04:59:58 54° 103° (ESE) 05:08:00 29.400- 29.500
PHONESAT 2.4 30 Aug 04:53:13 04:55:04 15° 9° (N) 04:56:55 2401.200-2431.200
MOZHAYETS 4 30 Aug 04:53:33 04:58:04 67° 259° (W) 05:02:37
STARS 30 Aug 04:57:48 05:02:02 46° 74° (ENE) 05:06:17 437.465
ITAMSAT 1 30 Aug 05:03:50 05:08:44 44° 287° (WNW) 05:13:37 435.822/435.867
HORYU 2 30 Aug 05:48:20 05:51:42 21° 97° (E) 05:55:04 437.375
YUBILEINY 30 Aug 05:54:14 06:01:23 29° 85° (E) 06:08:31 435.215
KKS-1 30 Aug 06:08:29 06:10:04 12° 266° (W) 06:11:39 437.445
NOAA 15 30 Aug 06:19:40 06:20:35 10° 93° (E) 06:21:30 137.62
CUBESAT XI-V 30 Aug 06:20:44 06:25:16 64° 259° (W) 06:29:52 437.345
AO-85 30 Aug 06:25:13 06:29:24 23° 305° (NW) 06:33:27 145.980
Cosmos 2504 30 Aug 06:26:32 06:29:40 13° 82° (E) 06:32:44 435.465 / 435.565
PHONESAT 2.4 30 Aug 06:28:57 06:31:52 46° 26° (NNE) 06:34:45 2401.200-2431.200
STARS 30 Aug 06:37:03 06:38:32 11° 266° (W) 06:40:02 437.465
GOMX 1 30 Aug 06:37:21 06:39:53 14° 91° (E) 06:42:22 467.674
ISS 30 Aug 06:42:49 06:43:05 10° 125° (SE) 06:43:20 145.825
Cosmos 2491 30 Aug 06:43:23 06:52:09 70° 268° (W) 07:00:54 435.465 / 435.565
AO-7 30 Aug 06:45:32 06:52:13 28° 298° (WNW) 06:58:55 29.400- 29.500
STRAND 1 30 Aug 07:09:38 07:13:12 19° 68° (ENE) 07:16:46 437.568
BRITE-PL 30 Aug 07:12:35 07:18:18 85° 102° (ESE) 07:23:44 437.365/2234.400
HORYU 2 30 Aug 07:24:33 07:28:09 25° 289° (WNW) 07:31:44 437.375
NOAA 18 30 Aug 07:26:28 07:31:32 38° 99° (E) 07:36:34 137.9125
YUBILEINY 30 Aug 07:49:10 07:57:39 50° 280° (W) 08:06:10 435.215
Cubesat XI-IV 30 Aug 07:52:09 07:57:29 84° 101° (E) 08:02:49 437.490
LilacSat-2 30 Aug 07:54:59 07:58:43 66° 284° (WNW) 08:02:27 437.200
NOAA 15 30 Aug 07:55:25 08:00:43 69° 285° (WNW) 08:05:59 137.62
HO-68 30 Aug 07:57:27 07:59:47 12° 92° (E) 08:02:06 435.675
CUTE-I 30 Aug 08:03:09 08:08:27 75° 285° (WNW) 08:13:45 437.470
PHONESAT 2.4 30 Aug 08:05:52 08:08:01 18° 218° (SW) 08:10:09 2401.200-2431.200
DOVE 4 30 Aug 08:05:55 08:10:42 53° 99° (E) 08:15:11 437.250
GOMX 1 30 Aug 08:13:07 08:18:16 52° 286° (WNW) 08:23:05 467.674
Cosmos 2504 30 Aug 08:13:28 08:22:03 90° 95° (E) 08:30:03 435.465 / 435.565
ISS 30 Aug 08:16:00 08:19:10 47° 317° (NW) 08:22:21 145.825
CANX-2 30 Aug 08:25:25 08:28:01 16° 95° (E) 08:30:37 2200.000
CINEMA 3 30 Aug 08:27:24 08:30:34 20° 95° (E) 08:33:40 145.822/145.860
CUTE 1.7 + AOD 2 30 Aug 08:30:58 08:33:34 16° 95° (E) 08:36:09 437.475
BEESAT 3 30 Aug 08:33:59 08:36:19 15° 109° (ESE) 08:38:41 437.485
JUGNU 30 Aug 08:36:51 08:38:49 12° 161° (SSE) 08:40:48 437.505
AIST 1 30 Aug 08:43:23 08:44:53 12° 86° (E) 08:46:24
STRAND 1 30 Aug 08:47:21 08:52:03 38° 261° (W) 08:56:46 437.568
BRITE-PL 30 Aug 08:54:50 08:55:51 10° 297° (WNW) 08:56:53 437.365/2234.400
NOAA 18 30 Aug 09:07:50 09:11:53 22° 293° (WNW) 09:15:55 137.9125
SO-50 30 Aug 09:22:26 09:26:58 86° 247° (WSW) 09:31:24 436.795
CUSAT 1 30 Aug 09:25:42 09:28:22 12° 71° (ENE) 09:31:07 437.405
RS-15 30 Aug 09:26:08 09:35:54 26° 42° (NE) 09:45:29 29.354- 29.394
SEEDS 30 Aug 09:32:20 09:36:32 66° 101° (ESE) 09:40:43 437.485
PRISM 30 Aug 09:36:01 09:40:05 77° 77° (ENE) 09:44:12 437.425
FUNcube-1 30 Aug 09:40:46 09:42:16 12° 94° (E) 09:43:45 145.935
HO-68 30 Aug 09:40:55 09:48:07 88° 286° (WNW) 09:55:16 435.675
DOVE 4 30 Aug 09:45:49 09:47:46 12° 295° (WNW) 09:49:40 437.250
UWE-3 30 Aug 09:53:50 09:57:35 33° 98° (E) 10:01:19 435.000/436.395/437.385
AAUSAT CUBESAT 2 30 Aug 09:55:15 09:59:24 64° 101° (E) 10:03:32 437.432
BEESAT 2 30 Aug 09:57:24 10:01:19 87° 124° (SE) 10:05:17 435.950
CANX-2 30 Aug 10:00:08 10:03:52 31° 287° (WNW) 10:07:36 2200.000
CUBEBUG 2 30 Aug 10:01:58 10:06:08 71° 100° (E) 10:10:14 437.445
ZACube-1 30 Aug 10:02:08 10:05:34 25° 97° (E) 10:08:59 437.345
CINEMA 3 30 Aug 10:04:04 10:07:39 25° 289° (WNW) 10:11:07 145.822/145.860
CUTE 1.7 + AOD 2 30 Aug 10:05:39 10:09:23 31° 287° (WNW) 10:13:07 437.475
COMPASS 1 30 Aug 10:06:12 10:10:21 68° 283° (WNW) 10:14:31 437.405
BEESAT 3 30 Aug 10:10:17 10:13:42 29° 302° (WNW) 10:17:09 437.485
Cosmos 2504 30 Aug 10:12:33 10:16:08 13° 289° (WNW) 10:19:40 435.465 / 435.565
AIST 1 30 Aug 10:17:57 10:22:01 39° 279° (W) 10:26:08
ANTELSAT 30 Aug 10:18:36 10:21:57 20° 71° (ENE) 10:25:17 437.575/2403.000
JUGNU 30 Aug 10:22:41 10:27:15 23° 169° (S) 10:31:48 437.505
DANDE 30 Aug 10:46:37 10:51:31 23° 78° (ENE) 10:57:11 436.750
TIGRISAT 30 Aug 10:47:35 10:51:55 42° 74° (ENE) 10:56:11 435.000
AIST 2 30 Aug 10:59:02 10:59:51 10° 107° (ESE) 11:00:40 435.215
Oscar 11 30 Aug 11:03:07 11:07:18 50° 285° (WNW) 11:11:28 145.826/435.025
CUSAT 1 30 Aug 11:03:43 11:10:51 81° 83° (E) 11:18:53 437.405
DELFI C3 30 Aug 11:09:37 11:13:37 73° 101° (E) 11:17:37 145.870
FUNcube-1 30 Aug 11:14:47 11:18:37 37° 286° (WNW) 11:22:25 145.935
Cosmos 2499 30 Aug 11:15:19 11:18:23 13° 82° (E) 11:21:23 435.465 / 435.565
UNISAT 6 30 Aug 11:16:53 11:21:30 79° 258° (WSW) 11:26:02 437.425
QB50P1 30 Aug 11:17:47 11:18:54 11° 67° (ENE) 11:20:01 145.935-145.965
POPSAT HIP 1 30 Aug 11:26:50 11:29:07 14° 69° (ENE) 11:31:25 437.405
UWE-3 30 Aug 11:31:32 11:33:43 14° 291° (WNW) 11:35:54 435.000/436.395/437.385
HO-68 30 Aug 11:31:52 11:34:47 13° 301° (WNW) 11:37:43 435.675
RS-15 30 Aug 11:37:37 11:50:03 88° 246° (WSW) 12:02:06 29.354- 29.394
ZACube-1 30 Aug 11:38:48 11:41:39 18° 289° (WNW) 11:44:31 437.345
M-CUBED/EXP-1 PRIME 30 Aug 11:48:16 11:49:49 12° 97° (E) 11:51:19 437.505
DUCHIFAT 1 30 Aug 11:49:43 11:53:08 24° 71° (ENE) 11:56:33 145.980
ESTCUBE 1 30 Aug 11:52:01 11:54:09 13° 94° (E) 11:56:19 437.505/2401.250
ANTELSAT 30 Aug 11:54:27 11:58:27 28° 262° (W) 12:02:23 437.575/2403.000
QB50P2 30 Aug 11:56:11 12:00:06 36° 73° (ENE) 12:04:00 145.880/145.840
HUMSAT D 30 Aug 11:58:10 12:02:12 61° 284° (WNW) 12:06:15 437.325/437.525
POLYITAN 1 30 Aug 11:58:40 12:02:36 36° 74° (ENE) 12:06:31 437.675
PCSat 30 Aug 11:59:19 12:04:42 77° 295° (WNW) 12:10:09 145.827
NANOSAT C BR1 30 Aug 12:04:24 12:08:22 39° 74° (ENE) 12:12:20 145.865
GONETS M04 30 Aug 12:04:55 12:13:10 49° 89° (E) 12:21:29
SRMSAT 30 Aug 12:05:40 12:09:41 19° 166° (SSE) 12:13:42 437.500
JUGNU 30 Aug 12:10:43 12:15:46 28° 179° (S) 12:20:48 437.505
TIGRISAT 30 Aug 12:26:23 12:28:41 14° 266° (W) 12:30:58 435.000
DANDE 30 Aug 12:28:07 12:34:10 52° 265° (W) 12:41:40 436.750
CUBEBUG 1 30 Aug 12:28:08 12:31:35 22° 96° (E) 12:35:00 437.445
BUGSAT 1 30 Aug 12:32:08 12:35:53 31° 73° (ENE) 12:39:39 437.445
AIST 2 30 Aug 12:33:55 12:37:50 45° 300° (WNW) 12:41:48 435.215
VELOX 1 30 Aug 12:34:00 12:37:20 20° 96° (E) 12:40:38 145.980
DX 1 30 Aug 12:41:40 12:44:20 16° 95° (E) 12:46:59 434.975-435.025
50 SAT 30 Aug 12:44:10 12:47:14 25° 98° (E) 12:50:16 437.505
CUSAT 1 30 Aug 12:48:09 12:52:19 16° 273° (W) 12:56:42 437.405
QB50P1 30 Aug 12:50:04 12:54:11 48° 260° (W) 12:58:20 145.935-145.965
POPSAT HIP 1 30 Aug 13:00:37 13:04:33 36° 261° (W) 13:08:30 437.405
Cosmos 2499 30 Aug 13:02:17 13:10:35 87° 274° (W) 13:18:16 435.465 / 435.565
JAS-2 30 Aug 13:02:43 13:07:53 82° 76° (ENE) 13:13:21 435.910
O/OREOS (USA 219) 30 Aug 13:08:14 13:11:29 20° 101° (E) 13:14:45 437.305
AUBIESAT-1 30 Aug 13:12:23 13:16:07 51° 289° (WNW) 13:19:34 437.475
UKube-1 30 Aug 13:15:18 13:19:09 31° 98° (E) 13:22:58 .
Oscar 19 30 Aug 13:17:37 13:21:14 20° 68° (ENE) 13:24:51 437.125/150
M-CUBED/EXP-1 PRIME 30 Aug 13:21:01 13:24:29 30° 292° (WNW) 13:27:42 437.505
AISAT 30 Aug 13:22:21 13:26:49 88° 99° (E) 13:31:14 437.250
DUCHIFAT 1 30 Aug 13:25:31 13:28:42 21° 264° (W) 13:31:54 145.980
ESTCUBE 1 30 Aug 13:26:48 13:31:05 42° 286° (WNW) 13:35:21 437.505/2401.250
QB50P2 30 Aug 13:33:46 13:35:57 14° 266° (W) 13:38:08 145.880/145.840
POLYITAN 1 30 Aug 13:36:19 13:38:27 14° 266° (W) 13:40:36 437.675
NANOSAT C BR1 30 Aug 13:42:27 13:44:11 12° 266° (W) 13:45:56 145.865
SRMSAT 30 Aug 13:53:24 13:58:19 27° 176° (S) 14:03:14 437.500
RS-15 30 Aug 13:53:44 14:00:46 18° 261° (W) 14:07:44 29.354- 29.394
JUGNU 30 Aug 13:59:38 14:04:17 24° 190° (S) 14:08:55 437.505
GONETS M04 30 Aug 14:02:47 14:10:06 29° 285° (WNW) 14:17:31
CUBEBUG 1 30 Aug 14:04:10 14:07:43 24° 289° (WNW) 14:11:15 437.445
SPROUT 30 Aug 14:06:47 14:10:58 56° 285° (WNW) 14:15:07 437.525
BUGSAT 1 30 Aug 14:08:40 14:11:15 16° 265° (W) 14:13:51 437.445
VELOX 1 30 Aug 14:09:59 14:13:42 26° 289° (WNW) 14:17:24 145.980
TISAT 1 30 Aug 14:15:03 14:18:43 29° 98° (E) 14:22:21 437.305
DX 1 30 Aug 14:16:37 14:20:33 33° 288° (WNW) 14:24:27 434.975-435.025
50 SAT 30 Aug 14:18:32 14:20:32 14° 290° (WNW) 14:22:32 437.505
ITAMSAT 1 30 Aug 14:39:15 14:42:12 15° 66° (ENE) 14:45:08 435.822/435.867
ITUPSAT 1 30 Aug 14:46:36 14:47:24 10° 93° (E) 14:48:12 437.325
O/OREOS (USA 219) 30 Aug 14:46:50 14:50:38 27° 294° (WNW) 14:54:29 437.305
ISS 30 Aug 14:48:57 14:50:49 14° 35° (NE) 14:52:40 145.825
Gurwin Techsat 1B 30 Aug 14:50:40 14:55:58 78° 76° (ENE) 15:01:18 435.225
UKube-1 30 Aug 14:52:05 14:54:55 17° 291° (WNW) 14:57:42 .
Oscar 19 30 Aug 14:55:26 15:00:12 39° 261° (W) 15:05:02 437.125/150
AO-85 30 Aug 15:01:31 15:05:37 82° 59° (ENE) 15:09:29 145.980
Cosmos 2499 30 Aug 15:01:56 15:04:25 12° 290° (WNW) 15:06:52 435.465 / 435.565
SWISSCUBE 30 Aug 15:14:57 15:19:02 28° 98° (E) 15:23:07 437.505
BEESAT 30 Aug 15:31:26 15:35:52 38° 99° (E) 15:40:18 436.000
SRMSAT 30 Aug 15:42:09 15:47:00 26° 186° (S) 15:51:50 437.500
AO-7 30 Aug 15:44:47 15:52:37 46° 67° (ENE) 16:00:26 29.400- 29.500
JUGNU 30 Aug 15:50:08 15:52:42 13° 198° (SSW) 15:55:16 437.505
TISAT 1 30 Aug 15:51:26 15:54:05 17° 291° (WNW) 15:56:44 437.305
ITAMSAT 1 30 Aug 16:16:11 16:21:12 50° 260° (W) 16:26:13 435.822/435.867
ITUPSAT 1 30 Aug 16:20:48 16:25:29 58° 285° (WNW) 16:30:10 437.325
ISS 30 Aug 16:24:18 16:27:26 44° 229° (SW) 16:30:34 145.825
KKS-1 30 Aug 16:27:04 16:29:21 14° 95° (E) 16:31:36 437.445
HORYU 2 30 Aug 16:43:28 16:44:30 11° 66° (ENE) 16:45:32 437.375
SWISSCUBE 30 Aug 16:52:57 16:56:38 23° 290° (WNW) 17:00:18 437.505
MOZHAYETS 4 30 Aug 16:54:00 16:58:22 43° 99° (E) 17:02:43
STARS 30 Aug 16:54:29 16:56:26 13° 94° (E) 16:58:23 437.465
BEESAT 30 Aug 17:10:18 17:13:17 17° 292° (WNW) 17:16:17 436.000
SRMSAT 30 Aug 17:31:58 17:35:36 17° 195° (SSW) 17:39:14 437.500
NOAA 15 30 Aug 17:35:03 17:36:04 11° 64° (ENE) 17:37:05 137.62
AO-7 30 Aug 17:38:09 17:45:23 32° 261° (W) 17:52:39 29.400- 29.500
Cosmos 2491 30 Aug 17:42:48 17:49:44 27° 85° (E) 17:56:41 435.465 / 435.565
CUTE-I 30 Aug 17:45:06 17:45:24 10° 64° (ENE) 17:45:42 437.470
KKS-1 30 Aug 18:01:52 18:05:59 39° 287° (WNW) 18:10:06 437.445
YUBILEINY 30 Aug 18:05:52 18:14:33 65° 82° (E) 18:23:09 435.215
Cosmos 2504 30 Aug 18:14:30 18:19:32 20° 74° (ENE) 18:24:36 435.465 / 435.565
HORYU 2 30 Aug 18:16:11 18:20:32 54° 259° (W) 18:24:54 437.375
BRITE-PL 30 Aug 18:17:30 18:22:09 51° 74° (ENE) 18:27:14 437.365/2234.400
CUBESAT XI-V 30 Aug 18:22:39 18:27:13 48° 99° (E) 18:31:45 437.345
BEESAT 2 30 Aug 18:23:13 18:23:48 10° 51° (NE) 18:24:22 435.950
STARS 30 Aug 18:28:48 18:32:54 40° 287° (WNW) 18:36:59 437.465
LilacSat-2 30 Aug 18:31:54 18:35:04 25° 73° (ENE) 18:38:14 437.200
BEESAT 3 30 Aug 18:32:15 18:35:37 26° 57° (ENE) 18:38:58 437.485
MOZHAYETS 4 30 Aug 18:32:45 18:35:07 14° 292° (WNW) 18:37:28
NOAA 18 30 Aug 18:47:14 18:52:27 44° 72° (ENE) 18:57:41 137.9125
